Hickory, NC

2:51 AM EST on February 21, 2018 (GMT -0500)
Hickory Regional

Weather History for KHKY - April, 2013

Change the Weather History Date:

Friday, April 26, 2013

  Actual Average Record
Temperature  
Mean Temperature 54 °F -  
Max Temperature 68 °F 71 °F 90 °F (1986)
Min Temperature 39 °F 48 °F 34 °F (1972)
Degree Days  
Heating Degree Days 12    
Growing Degree Days 4 (Base 50)    
Moisture  
Dew Point 34 °F    
Average Humidity 45    
Maximum Humidity 79    
Minimum Humidity 27    
Precipitation  
Precipitation 0.00 in - - ()
Sea Level Pressure  
Sea Level Pressure 30.33 in    
Wind  
Wind Speed 2 mph (East)    
Max Wind Speed 10 mph    
Max Gust Speed 18 mph    
Visibility 10 miles    
Events Rain    
Averages and records for this station are not official NWS values.
T = Trace of Precipitation, MM = Missing Value Source: NWS Daily Summary

Daily Weather History Graph

Daily Weather History Graph

Search for Another Location

Airport or City:

Trip Planner

Search our weather history database for the weather conditions in past years. The results will help you decide how hot, cold, wet, or windy it might be!

Date:

Astronomy

Apr. 26, 2013 Rise Set
Actual Time 6:38 AM EDT 8:08 PM EDT
Civil Twilight 6:11 AM EDT 8:35 PM EDT
Nautical Twilight 5:39 AM EDT 9:07 PM EDT
Astronomical Twilight 5:05 AM EDT 9:42 PM EDT
Moon 9:26 PM EDT (4/26) 7:06 AM EDT (4/26)
Length of Visible Light 14h 23m
Length of Day
13h 29m
Full, 99% of the Moon is Illuminated
Apr 26
Full
May 2
Last Quarter
May 9
New
May 18
First Quarter
May 25
Full

Hourly Weather History & Observations

Time (EDT) Temp. Dew Point Humidity Pressure Visibility Wind Dir Wind Speed Gust Speed Precip Events Conditions
12:53 AM 51.1 °F 30.0 °F 44% 30.28 in 10.0 mi Calm Calm - N/A   Clear
1:53 AM 48.0 °F 32.0 °F 54% 30.29 in 10.0 mi Calm Calm - N/A   Clear
3:53 AM 46.9 °F 30.9 °F 54% 30.28 in 10.0 mi Calm Calm - N/A   Clear
4:53 AM 45.0 °F 32.0 °F 60% 30.29 in 10.0 mi Calm Calm - N/A   Clear
5:53 AM 42.1 °F 33.1 °F 70% 30.30 in 10.0 mi Calm Calm - N/A   Clear
6:53 AM 39.9 °F 34.0 °F 79% 30.33 in 10.0 mi Calm Calm - N/A   Clear
7:53 AM 46.0 °F 37.0 °F 71% 30.36 in 10.0 mi Calm Calm - N/A   Clear
8:53 AM 52.0 °F 36.0 °F 54% 30.39 in 10.0 mi NE 3.5 mph - N/A   Clear
9:53 AM 59.0 °F 33.1 °F 38% 30.40 in 10.0 mi ENE 10.4 mph 18.4 mph N/A   Clear
10:53 AM 60.1 °F 32.0 °F 35% 30.40 in 10.0 mi East 5.8 mph - N/A   Clear
11:53 AM 64.0 °F 34.0 °F 33% 30.39 in 10.0 mi ENE 9.2 mph - N/A   Clear
12:53 PM 64.0 °F 32.0 °F 30% 30.39 in 10.0 mi Calm Calm - N/A   Clear
1:53 PM 66.0 °F 33.1 °F 29% 30.37 in 10.0 mi Variable 4.6 mph - N/A   Clear
2:53 PM 68.0 °F 33.1 °F 27% 30.35 in 10.0 mi East 5.8 mph - N/A   Clear
3:53 PM 66.0 °F 32.0 °F 28% 30.32 in 10.0 mi South 3.5 mph - N/A   Clear
4:53 PM 66.0 °F 33.1 °F 29% 30.30 in 10.0 mi Variable 4.6 mph - N/A   Clear
5:53 PM 66.0 °F 33.1 °F 29% 30.29 in 10.0 mi Variable 3.5 mph - N/A   Clear
6:53 PM 64.9 °F 33.1 °F 31% 30.30 in 10.0 mi Calm Calm - N/A   Clear
7:53 PM 63.0 °F 37.0 °F 38% 30.32 in 10.0 mi Calm Calm - N/A   Mostly Cloudy
8:53 PM 62.1 °F 36.0 °F 38% 30.33 in 10.0 mi Calm Calm - N/A   Mostly Cloudy
9:53 PM 62.1 °F 37.9 °F 41% 30.31 in 10.0 mi Calm Calm - N/A   Overcast
10:53 PM 59.0 °F 42.1 °F 53% 30.30 in 10.0 mi Calm Calm - 0.00 in   Overcast
11:53 PM 57.9 °F 45.0 °F 62% 30.32 in 10.0 mi Calm Calm - 0.00 in Rain Light Rain